This is the latest recevied weather packets stored in our database for station/object SQ7IQO. If no packets are shown the sender has not sent any weather packets the latest 10 day(s).
| Time | Temp. | Humidity | Pressure | Rain* | Wind** | Luminosity | Snow |
|---|---|---|---|---|---|---|---|
| 1787752298 | 23.33° C | 50% | 1023.5 hPa | 0 mm | 0 m/s | - | - |
| 1787752238 | 23.89° C | 49% | 1023.5 hPa | 0 mm | 0 m/s | - | - |
| 1787752178 | 23.89° C | 50% | 1023.6 hPa | 0 mm | 0 m/s | - | - |
| 1787752118 | 23.89° C | 50% | 1023.6 hPa | 0 mm | 0 m/s | - | - |
| 1787752058 | 23.89° C | 52% | 1023.6 hPa | 0 mm | 0 m/s | - | - |
| 1787751998 | 23.33° C | 53% | 1023.6 hPa | 0 mm | 0 m/s | - | - |
| 1787751938 | 23.33° C | 53% | 1023.6 hPa | 0 mm | 0 m/s | - | - |
| 1787751878 | 22.78° C | 53% | 1023.6 hPa | 0 mm | 0 m/s | - | - |
| 1787751818 | 23.33° C | 51% | 1023.6 hPa | 0 mm | 0.45 m/s, ° | - | - |
| 1787751758 | 23.89° C | 49% | 1023.6 hPa | 0 mm | 0 m/s | - | - |
| 1787751698 | 23.89° C | 48% | 1023.6 hPa | 0 mm | 0.45 m/s, ° | - | - |
| 1787751638 | 23.89° C | 49% | 1023.6 hPa | 0 mm | 0 m/s | - | - |
| 1787751578 | 23.89° C | 52% | 1023.5 hPa | 0 mm | 0 m/s | - | - |
| 1787751518 | 23.89° C | 50% | 1023.6 hPa | 0 mm | 0 m/s | - | - |
| 1787751458 | 23.89° C | 52% | 1023.6 hPa | 0 mm | 0.45 m/s, ° | - | - |
| 1787751398 | 23.33° C | 52% | 1023.6 hPa | 0 mm | 0 m/s | - | - |
| 1787751338 | 23.33° C | 51% | 1023.6 hPa | 0 mm | 0 m/s | - | - |
| 1787751278 | 23.33° C | 51% | 1023.6 hPa | 0 mm | 0.45 m/s, ° | - | - |
| 1787751218 | 23.33° C | 52% | 1023.6 hPa | 0 mm | 0.45 m/s, ° | - | - |
| 1787751158 | 23.89° C | 52% | 1023.6 hPa | 0 mm | 0.89 m/s, ° | - | - |
| 1787751098 | 24.44° C | 53% | 1023.5 hPa | 0 mm | 0.45 m/s, ° | - | - |
| 1787751038 | 23.89° C | 52% | 1023.5 hPa | 0 mm | 0 m/s | - | - |
| 1787750978 | 23.89° C | 53% | 1023.6 hPa | 0 mm | 0 m/s | - | - |
| 1787750918 | 24.44° C | 50% | 1023.5 hPa | 0 mm | 0 m/s | - | - |
| 1787750858 | 23.89° C | 53% | 1023.5 hPa | 0 mm | 0 m/s | - | - |
* Rain latest hour (hover to see other rain measurements)
** Current wind speed in m/s (hover to see current wind gust speed)